TimeEDT,TemperatureF,Dew PointF,Humidity,Sea Level PressureIn,VisibilityMPH,Wind Direction,Wind SpeedMPH,Gust SpeedMPH,PrecipitationIn,Events,Conditions,WindDirDegrees,DateUTC
12:05 AM,66.2,64.4,94,30.12,1.2,Calm,Calm,-,N/A,,Overcast,0,2012-10-04 04:05:00
12:36 AM,66.2,66.2,100,30.11,2.5,Calm,Calm,-,N/A,,Overcast,0,2012-10-04 04:36:00
12:54 AM,66.9,64.9,93,30.12,2.0,SSW,3.5,-,N/A,,Overcast,200,2012-10-04 04:54:00
1:06 AM,66.2,66.2,100,30.11,4.0,SSE,3.5,-,N/A,,Overcast,160,2012-10-04 05:06:00
1:50 AM,66.2,66.2,100,30.12,2.5,SW,3.5,-,N/A,,Overcast,230,2012-10-04 05:50:00
1:54 AM,66.0,64.9,96,30.12,1.8,SW,3.5,-,N/A,,Overcast,230,2012-10-04 05:54:00
2:11 AM,66.2,64.4,94,30.11,2.0,SW,3.5,-,N/A,,Overcast,220,2012-10-04 06:11:00
2:54 AM,66.9,66.0,97,30.12,2.5,SW,3.5,-,N/A,,Overcast,220,2012-10-04 06:54:00
3:08 AM,66.2,66.2,100,30.12,1.8,SSW,3.5,-,N/A,,Overcast,210,2012-10-04 07:08:00
3:22 AM,66.2,66.2,100,30.11,2.0,SW,3.5,-,N/A,,Overcast,230,2012-10-04 07:22:00
3:35 AM,66.2,66.2,100,30.11,1.8,SSW,3.5,-,N/A,,Overcast,210,2012-10-04 07:35:00
3:46 AM,66.2,66.2,100,30.12,2.5,Calm,Calm,-,N/A,,Overcast,0,2012-10-04 07:46:00
3:54 AM,66.9,66.0,97,30.11,1.5,SSW,3.5,-,N/A,,Overcast,200,2012-10-04 07:54:00
4:54 AM,66.0,64.9,96,30.11,1.5,SW,3.5,-,N/A,,Overcast,220,2012-10-04 08:54:00
5:24 AM,66.2,64.4,94,30.11,2.0,SW,6.9,-,N/A,,Overcast,230,2012-10-04 09:24:00
5:32 AM,66.2,64.4,94,30.12,1.2,SW,5.8,-,N/A,,Overcast,220,2012-10-04 09:32:00
5:40 AM,66.2,64.4,94,30.11,1.0,SSW,3.5,-,N/A,,Overcast,210,2012-10-04 09:40:00
5:42 AM,66.2,64.4,94,30.11,0.8,Calm,Calm,-,N/A,,Mist,0,2012-10-04 09:42:00
5:54 AM,66.0,64.9,96,30.11,0.8,SSW,4.6,-,N/A,,Mist,200,2012-10-04 09:54:00
6:02 AM,66.2,64.4,94,30.11,1.2,SW,3.5,-,N/A,,Overcast,220,2012-10-04 10:02:00
6:18 AM,66.2,64.4,94,30.12,2.0,Calm,Calm,-,N/A,,Overcast,0,2012-10-04 10:18:00
6:52 AM,66.2,64.4,94,30.13,3.0,Calm,Calm,-,0.00,,Overcast,0,2012-10-04 10:52:00
6:54 AM,66.0,64.9,96,30.13,3.0,Calm,Calm,-,0.00,,Overcast,0,2012-10-04 10:54:00
7:09 AM,66.2,64.4,94,30.13,2.5,Calm,Calm,-,N/A,,Overcast,0,2012-10-04 11:09:00
7:20 AM,66.2,64.4,94,30.13,1.8,Calm,Calm,-,N/A,,Mostly Cloudy,0,2012-10-04 11:20:00
7:30 AM,64.4,64.4,100,30.14,0.8,Calm,Calm,-,N/A,,Overcast,0,2012-10-04 11:30:00
7:54 AM,66.0,64.9,96,30.12,0.5,Calm,Calm,-,N/A,Fog,Fog,0,2012-10-04 11:54:00
8:03 AM,66.2,66.2,100,30.12,1.2,Calm,Calm,-,N/A,,Overcast,0,2012-10-04 12:03:00
8:12 AM,66.2,66.2,100,30.12,2.5,Calm,Calm,-,N/A,,Mostly Cloudy,0,2012-10-04 12:12:00
8:26 AM,66.2,66.2,100,30.13,3.0,South,3.5,-,N/A,,Mostly Cloudy,190,2012-10-04 12:26:00
8:54 AM,68.0,66.0,93,30.12,4.0,Calm,Calm,-,N/A,,Overcast,0,2012-10-04 12:54:00
9:54 AM,68.0,66.0,93,30.14,4.0,Calm,Calm,-,0.00,Rain,Light Rain,0,2012-10-04 13:54:00
10:24 AM,68.0,66.2,94,30.13,4.0,NE,3.5,-,0.02,Rain,Light Rain,50,2012-10-04 14:24:00
10:54 AM,69.1,66.0,90,30.13,5.0,ENE,3.5,-,0.03,Rain,Light Rain,70,2012-10-04 14:54:00
11:42 AM,69.8,66.2,88,30.07,8.0,East,8.1,-,0.02,,Overcast,90,2012-10-04 15:42:00
11:54 AM,69.1,66.9,93,30.10,8.0,Calm,Calm,-,0.02,,Overcast,0,2012-10-04 15:54:00
12:31 PM,69.8,66.2,88,30.10,9.0,Calm,Calm,-,0.00,,Overcast,0,2012-10-04 16:31:00
12:54 PM,70.0,66.9,90,30.09,10.0,Calm,Calm,-,0.00,,Overcast,0,2012-10-04 16:54:00
1:40 PM,71.6,66.2,83,30.08,10.0,Calm,Calm,-,0.00,,Overcast,0,2012-10-04 17:40:00
1:54 PM,71.1,66.9,87,30.07,10.0,Calm,Calm,-,0.00,,Overcast,0,2012-10-04 17:54:00
2:54 PM,72.0,66.9,84,30.06,10.0,Calm,Calm,-,N/A,,Mostly Cloudy,0,2012-10-04 18:54:00
3:40 PM,71.6,68.0,88,30.06,10.0,Calm,Calm,-,N/A,,Overcast,0,2012-10-04 19:40:00
3:54 PM,72.0,68.0,87,30.05,10.0,Calm,Calm,-,0.00,Rain,Light Rain,0,2012-10-04 19:54:00
4:36 PM,71.6,68.0,88,30.05,4.0,Calm,Calm,-,0.02,Rain,Light Rain,0,2012-10-04 20:36:00
4:45 PM,69.8,68.0,94,30.05,2.5,Calm,Calm,-,0.04,Rain,Light Rain,0,2012-10-04 20:45:00
4:52 PM,69.8,68.0,94,30.05,8.0,WNW,5.8,-,0.04,Rain,Light Rain,290,2012-10-04 20:52:00
4:53 PM,70.0,68.0,93,30.05,8.0,WNW,4.6,-,0.04,Rain,Light Rain,300,2012-10-04 20:53:00
5:07 PM,69.8,66.2,88,30.05,10.0,WNW,3.5,-,0.00,,Overcast,290,2012-10-04 21:07:00
5:54 PM,69.1,64.9,87,30.04,10.0,Calm,Calm,-,0.01,,Overcast,0,2012-10-04 21:54:00
6:54 PM,64.9,64.0,97,30.05,2.0,WNW,3.5,-,N/A,,Mostly Cloudy,300,2012-10-04 22:54:00
7:01 PM,64.4,64.4,100,30.05,1.2,Calm,Calm,-,N/A,,Scattered Clouds,0,2012-10-04 23:01:00
7:06 PM,64.4,64.4,100,30.05,0.8,Calm,Calm,-,N/A,,Scattered Clouds,0,2012-10-04 23:06:00
7:13 PM,62.6,62.6,100,30.05,0.5,Calm,Calm,-,N/A,Fog,Fog,0,2012-10-04 23:13:00
7:22 PM,62.6,62.6,100,30.05,0.2,Calm,Calm,-,N/A,Fog,Fog,0,2012-10-04 23:22:00
7:32 PM,62.6,62.6,100,30.05,0.2,Calm,Calm,-,N/A,Fog,Fog,0,2012-10-04 23:32:00
7:52 PM,62.6,62.6,100,30.05,1.2,WSW,3.5,-,N/A,,Mostly Cloudy,250,2012-10-04 23:52:00
7:54 PM,63.0,62.1,97,30.05,1.8,West,3.5,-,N/A,,Mostly Cloudy,260,2012-10-04 23:54:00
8:08 PM,62.6,62.6,100,30.05,3.0,WSW,4.6,-,N/A,,Mostly Cloudy,250,2012-10-05 00:08:00
8:41 PM,62.6,60.8,94,30.05,1.2,Calm,Calm,-,N/A,,Mostly Cloudy,0,2012-10-05 00:41:00
8:43 PM,62.6,62.6,100,30.05,0.8,Calm,Calm,-,N/A,,Mostly Cloudy,0,2012-10-05 00:43:00
8:54 PM,61.0,60.1,97,30.05,1.0,WSW,3.5,-,N/A,,Partly Cloudy,240,2012-10-05 00:54:00
9:00 PM,62.6,60.8,94,30.05,2.0,WSW,3.5,-,N/A,,Partly Cloudy,240,2012-10-05 01:00:00
9:10 PM,60.8,60.8,100,30.06,4.0,SW,3.5,-,N/A,,Clear,220,2012-10-05 01:10:00
9:17 PM,62.6,60.8,94,30.06,1.8,SW,3.5,-,N/A,,Clear,230,2012-10-05 01:17:00
9:22 PM,60.8,60.8,100,30.06,0.8,SW,3.5,-,N/A,,Mist,220,2012-10-05 01:22:00
9:54 PM,59.0,59.0,100,30.07,0.5,SW,3.5,-,N/A,Fog,Fog,230,2012-10-05 01:54:00
10:22 PM,60.8,59.0,94,30.07,1.2,Calm,Calm,-,0.00,Rain,Light Rain,0,2012-10-05 02:22:00
10:28 PM,60.8,59.0,94,30.07,0.8,Calm,Calm,-,0.00,,Mist,0,2012-10-05 02:28:00
10:54 PM,60.1,60.1,100,30.07,0.2,SW,3.5,-,0.00,Fog,Fog,220,2012-10-05 02:54:00
11:54 PM,57.0,55.9,96,30.06,0.2,Calm,Calm,-,N/A,Fog,Fog,0,2012-10-05 03:54:00